Torna al catalogo

STARLINK-31609

AttivoComunicazioniVLEO
NORAD 59269·PAYLOAD·🇺🇸 United States

Lanciato Mar 19, 2024 da Vandenberg Space Force Base

Loading…

Prossimi Passaggi (prossime 24 ore)

TLE

AggiornatoSource: CelesTrak SupGP

Epoca: Sep 14, 2026, 13:47 UTC

1 59269C 24050R   26257.57479167 -.00055994  00000+0 -16546-2 0  2574
2 59269  53.1613  21.2600 0001238  80.7516 196.8222 15.34413570    18

Traccia STARLINK-31609 in tempo reale con AllMySat

Download on the App Store